PST,Max TemperatureF,Mean TemperatureF,Min TemperatureF,Max Dew PointF,MeanDew PointF,Min DewpointF,Max Humidity, Mean Humidity, Min Humidity, Max Sea Level PressureIn, Mean Sea Level PressureIn, Min Sea Level PressureIn, Max VisibilityMiles, Mean VisibilityMiles, Min VisibilityMiles, Max Wind SpeedMPH, Mean Wind SpeedMPH, Max Gust SpeedMPH,PrecipitationIn, CloudCover, Events, WindDirDegrees
2012-11-1,58,55,52,54,51,48,100,92,83,30.06,29.95,29.79,10,8,3,25,14,31,0.37,7,Rain,183
2012-11-2,56,51,45,54,49,45,100,89,77,30.05,30.02,29.99,10,7,0,9,3,10,0.18,6,Fog-Rain,211
2012-11-3,65,59,53,57,55,52,100,87,73,30.19,30.13,30.01,10,10,5,13,5,16,T,8,Rain,207
2012-11-4,74,64,54,59,57,56,100,79,57,30.35,30.29,30.20,10,9,5,13,4,18,0.00,6,,203
2012-11-5,64,58,51,59,55,51,100,87,73,30.36,30.30,30.14,10,4,0,12,5,14,T,6,Fog,252
2012-11-6,69,61,53,56,54,51,100,79,58,30.14,30.09,30.03,10,8,3,9,5,12,0.01,7,,229
2012-11-7,59,50,40,52,45,40,100,76,51,30.21,30.12,29.94,10,10,4,13,3,19,T,5,Fog-Rain,322
2012-11-8,47,42,37,43,41,36,100,93,86,29.91,29.81,29.77,10,9,2,10,5,12,0.16,7,Fog-Rain,188
2012-11-9,49,42,34,43,40,34,100,88,76,29.94,29.90,29.86,10,10,7,20,6,23,0.04,6,Rain,206
2012-11-10,48,42,35,40,37,35,100,86,71,30.25,30.10,29.95,10,10,2,10,4,12,T,7,,202
2012-11-11,50,45,40,44,40,36,93,80,66,30.29,30.26,30.22,10,10,9,20,10,23,0.14,8,Rain,167
2012-11-12,53,50,46,50,47,44,100,92,83,30.27,30.23,30.19,10,8,3,18,7,23,0.29,7,Rain,179
2012-11-13,56,49,41,52,48,43,100,93,86,30.26,30.21,30.16,10,8,0,8,3,10,0.03,7,Fog-Rain,183
2012-11-14,57,49,40,48,45,39,100,92,83,30.30,30.24,30.19,10,5,0,15,7,18,0.00,7,Fog,237
2012-11-15,51,47,43,46,44,42,100,87,74,30.16,30.05,29.96,10,6,2,10,4,12,0.00,8,,8
2012-11-16,59,48,36,48,40,36,100,84,67,29.95,29.90,29.75,10,5,0,9,5,12,T,5,Fog-Rain-Snow,194
2012-11-17,55,48,41,50,45,39,100,92,83,29.86,29.71,29.61,10,8,2,20,8,25,0.43,7,Rain,191
2012-11-18,54,49,43,46,41,39,86,73,59,29.88,29.81,29.71,10,10,10,26,16,35,0.19,8,Rain,183
2012-11-19,59,56,52,55,50,43,100,79,57,29.77,29.69,29.62,10,7,2,33,15,44,1.90,8,Rain,192
2012-11-20,56,52,47,52,48,44,100,89,77,29.78,29.72,29.66,10,9,4,32,12,39,1.43,8,Rain,184
2012-11-21,49,42,34,44,41,34,100,90,80,30.33,30.06,29.72,10,9,2,22,9,28,0.47,5,Rain-Snow,195
2012-11-22,47,40,33,43,38,33,100,93,86,30.37,30.32,30.27,10,4,0,7,2,8,0.00,5,Fog,222
2012-11-23,54,45,35,50,43,36,100,86,71,30.29,30.24,30.18,10,8,1,12,7,16,0.38,6,Rain,180
2012-11-24,52,46,40,52,49,40,100,95,89,30.25,30.22,30.20,10,7,0,10,5,12,0.66,8,Rain,8
2012-11-25,43,42,40,43,41,38,100,91,82,30.26,30.21,30.09,10,6,0,16,10,20,0.00,8,Fog,10
2012-11-26,48,40,32,39,36,32,100,86,71,30.10,30.07,30.02,10,7,0,5,2,9,0.00,6,Fog,17
2012-11-27,40,37,34,39,37,34,100,96,92,30.08,30.02,29.88,4,1,0,10,1,,T,8,Fog-Snow,11
2012-11-28,48,43,37,42,38,36,100,91,82,29.87,29.74,29.64,10,6,0,10,2,12,0.03,7,Fog-Rain-Snow,340
2012-11-29,53,45,37,47,45,37,100,89,77,29.70,29.60,29.49,10,9,3,28,9,37,0.47,7,Rain,177
2012-11-30,59,54,48,51,48,45,93,82,71,29.58,29.53,29.47,10,10,6,32,13,39,0.42,7,Rain,177